Regional Weather Roundup
Issued by NWS

Home | Current Version | Previous Version | Text Only | Print | Product List | Glossary Off
Versions: 1 2 3 4 5 6 7 8 9 10 11 12 13 14 15 16 17 18 19 20 21 22 23 24 25 26 27 28 29 30 31 32 33 34 35 36 37 38 39 40 41 42 43 44 45 46 47 48 49 50

000
ASUS43 KLOT 192210
RWRIL

ILLINOIS REGIONAL WEATHER ROUNDUP
NATIONAL WEATHER SERVICE CHICAGO/ROMEOVILLE IL
500 PM CDT FRI SEP 19 2014

NOTE: "FAIR" INDICATES FEW OR NO CLOUDS BELOW 12,000 FEET WITH NO
SIGNIFICANT WEATHER AND/OR OBSTRUCTIONS TO VISIBILITY.

* THESE STATIONS ARE NOT UNDER NWS QUALITY CONTROL. THEY ALSO MAY NOT
  REPORT WEATHER SUCH AS PRECIPITATION OR FOG.

ILZ001-002-007-009-015-016-024-192300-
NORTHWEST ILLINOIS

CITY           SKY/WX    TMP DP  RH WIND       PRES   REMARKS
MOLINE         SUNNY     76  53  44 S10       29.96F
STERLING*      SUNNY     77  54  44 SW9G16    29.98S
SAVANNA*       MOSUNNY   76  49  38 S15G25    29.96S
$$

ILZ003-004-008-010-011-017-018-192300-
NORTH CENTRAL ILLINOIS

CITY           SKY/WX    TMP DP  RH WIND       PRES   REMARKS
ROCKFORD       CLOUDY    74  47  38 S21G28    29.99F
FREEPORT*      MOSUNNY   73  54  51 S16G22    29.99F
ROCHELLE*      MOSUNNY   74  46  36 S16G24    30.00S
DE KALB*       MOSUNNY   71  49  45 S20G25    30.01S
PERU*          SUNNY     76  47  36 S18       29.99F
$$

ILZ005-006-012>014-019>023-192300-
NORTHEAST ILLINOIS

CITY           SKY/WX    TMP DP  RH WIND       PRES   REMARKS
CHICAGO-OHARE  PTSUNNY   78  43  28 S20       30.01F
CHICAGO-MIDWAY PTSUNNY   76  44  32 S14       30.02S
AURORA         SUNNY     74  45  35 S14G22    30.00F
LANSING*       SUNNY     72  46  39 S13       30.04S
JOLIET*        SUNNY     73  44  35 S7        30.02F
WAUKEGAN       SUNNY     72  44  36 S17       29.98F
DUPAGE AIRPORT SUNNY     74  46  36 S15       30.00F
KANKAKEE*      SUNNY     73  48  41 S9        30.04F
WHEELING       SUNNY     74  43  32 S16       30.02F
MORRIS*        SUNNY     75  47  36 S10G17    30.01F
ROMEOVILLE*    SUNNY     73  44  35 S13G20    30.02F
NORTHERLY ISL    N/A     73  44  35 S10         N/A
$$

LMZ740>746-192300-
SOUTHERN LAKE MICHIGAN

STATION/POSITION SKY/WX   TEMP    WIND        PRES    VSBY  WAVE
                          AIR SEA DIR/SP/G                  HT/PER
                          (F)     (DEG/KT/KT) (MB)    (MI)  (FT/S)
SOUTHERN BUOY              65 65  160/ 14/ 16 1016.4F         3/ 5
WAUKEGAN HARBOR            67     160/ 16/ 19   N/A
HARRISON CRIB              69     170/ 17/ 18   N/A
BURNHAM HARBOR             73     170/ 12/ 18   N/A
CALUMET HARBOR             73     170/ 10/ 19 1015.7R
MICHIGAN CITY              71     130/ 12/ 17   N/A
MICHIGAN CITY 6N           70 65  160/ 10/ 12   N/A           1/ 2
ST. JOSEPH                 69 66  150/ 14/ 17   N/A           2/ 3
$$

ILZ025>027-034>036-040-047-049-050-058-095>099-192300-
WEST-CENTRAL ILLINOIS

CITY           SKY/WX    TMP DP  RH WIND       PRES   REMARKS
QUINCY         SUNNY     75  55  49 S10       29.99F
GALESBURG*     SUNNY     75  56  51 S12G18    29.99F
MACOMB*        SUNNY     77  54  44 S14       30.02S
JACKSONVILLE*  SUNNY     79  55  43 S12G17    30.02S HX  80
PITTSFIELD*    SUNNY     76  55  48 S8        30.02S
$$

ILZ028>032-037-038-041>044-048-051>054-059>061-192300-
CENTRAL ILLINOIS

CITY           SKY/WX    TMP DP  RH WIND       PRES   REMARKS
PONTIAC        SUNNY     79  45  29 S13       30.02F
DECATUR        SUNNY     76  49  38 S12       30.04F
PEORIA         SUNNY     77  53  43 S13       30.00F
LACON*         SUNNY     75  50  41 S12       29.99F
LINCOLN*       SUNNY     78  50  37 S8        29.99F
SPRINGFIELD    SUNNY     78  54  43 S13       30.01F
TAYLORVILLE    SUNNY     73  54  49 S9        30.03F
$$

ILZ033-039-045-046-055>057-062-063-192300-
EAST-CENTRAL ILLINOIS

CITY           SKY/WX    TMP DP  RH WIND       PRES   REMARKS
CHAMPAIGN      SUNNY     75  49  39 SE12      30.05S
DANVILLE*      SUNNY     73  49  42 S9        30.03F
RANTOUL*       SUNNY     77  42  28 SE7       30.06S
MATTOON        SUNNY     73  52  47 S9        30.04F
PARIS*         SUNNY     75  49  39 S7        30.06F
$$

ILZ079-100>102-192300-
SOUTHWEST ILLINOIS

CITY           SKY/WX    TMP DP  RH WIND       PRES   REMARKS
ALTON          MOSUNNY   77  54  44 S12       30.02F
BELLEVILLE     MOSUNNY   78  61  55 E3        30.01F HX  80
CAHOKIA*       SUNNY     80  58  46 SE6       30.01F HX  80
SPARTA*        SUNNY     78  57  48 SE6       30.04R
$$

ILZ064>066-069>071-074>076-080>082-084>086-088>090-092>094-192300-
SOUTH-CENTRAL ILLINOIS

CITY           SKY/WX    TMP DP  RH WIND       PRES   REMARKS
CARBONDALE     SUNNY     79  58  48 CALM      30.02S HX  80
CAIRO*         SUNNY     83  60  45 CALM      30.01S HX  83
EFFINGHAM*     SUNNY     76  49  37 S3        30.04F
MARION         MOSUNNY   79  59  50 SE5       30.04R HX  80
MT. VERNON     SUNNY     79  55  44 S7        30.04F
CENTRALIA*     SUNNY     77  53  43 E6        30.04S
SALEM*         SUNNY     78  58  50 E3        30.05S
METROPOLIS*    SUNNY     82  55  40 CALM      30.01S HX  81
$$

ILZ067-068-072-073-078-083-087-091-192300-
SOUTHEAST ILLINOIS

CITY           SKY/WX    TMP DP  RH WIND       PRES   REMARKS
LAWRENCEVILLE  SUNNY     77  53  43 SE8       30.05S
FLORA*         SUNNY     77  52  40 SE8       30.04S
FAIRFIELD*     SUNNY    N/A N/A N/A E5        30.03S
HARRISBURG*    SUNNY     80  55  42 S8        30.03F HX  80
ROBINSON*      SUNNY     76  56  48 SE8       30.06S
CARMI*         SUNNY     82  55  38 E3        30.02S HX  81
$$

ABBREVIATIONS USED IN REMARKS
   TC - TEMPERATURE IN CELSIUS
  WCI - WIND CHILL INDEX
   HX - HEAT INDEX
  VSB - VISIBILITY
$$



USA.gov is the U.S. government's official web portal to all federal, state and local government web resources and services.